• In Uzbekistan
  • List of Countries
  • For 7 days
  • Water Temperature
  • Satellite Maps
  • Weather Map
  • Weather Widgets
  • user-avatar
    Login

    Hourly Weather Dromore

    Today, 20 June, Wednesday

    Time Temperature Precipitation Wind Pressure Humidity
    00:00 +16°C° 0 mm 7 mps 748 mmHg 96%
    01:00 +16°C° 0.4 mm 7 mps 748 mmHg 96%
    02:00 +15°C° 0.4 mm 7 mps 748 mmHg 96%
    03:00 +15°C° 0.4 mm 7 mps 748 mmHg 95%
    04:00 +14°C° 0.3 mm 7 mps 749 mmHg 95%
    05:00 +13°C° 0.3 mm 6 mps 749 mmHg 95%
    06:00 +11°C° 0.3 mm 6 mps 750 mmHg 95%
    07:00 +11°C° 0 mm 6 mps 751 mmHg 92%
    08:00 +11°C° 0 mm 6 mps 751 mmHg 88%
    09:00 +11°C° 0 mm 7 mps 752 mmHg 84%
    10:00 +11°C° 0 mm 6 mps 753 mmHg 79%
    11:00 +13°C° 0 mm 6 mps 754 mmHg 73%
    12:00 +14°C° 0 mm 6 mps 754 mmHg 68%
    13:00 +14°C° 0 mm 5 mps 754 mmHg 67%
    14:00 +13°C° 0 mm 5 mps 755 mmHg 67%
    15:00 +13°C° 0 mm 5 mps 755 mmHg 67%
    16:00 +13°C° 0 mm 5 mps 755 mmHg 68%
    17:00 +12°C° 0 mm 5 mps 756 mmHg 70%
    18:00 +12°C° 0 mm 5 mps 756 mmHg 72%
    19:00 +10°C° 0 mm 5 mps 756 mmHg 74%
    20:00 +9°C° 0 mm 5 mps 756 mmHg 76%
    21:00 +8°C° 0 mm 6 mps 757 mmHg 79%
    22:00 +8°C° 0 mm 6 mps 757 mmHg 80%
    23:00 +7°C° 0 mm 6 mps 757 mmHg 81%

    Tomorrow, 21 June, Thursday

    Time Temperature Precipitation Wind Pressure Humidity
    00:00 +5°C° 0 mm 6 mps 758 mmHg 82%
    01:00 +5°C° 0 mm 6 mps 758 mmHg 82%
    02:00 +5°C° 0 mm 6 mps 758 mmHg 82%
    03:00 +5°C° 0 mm 6 mps 759 mmHg 83%
    04:00 +5°C° 0 mm 6 mps 759 mmHg 82%
    05:00 +7°C° 0 mm 6 mps 760 mmHg 81%
    06:00 +8°C° 0 mm 7 mps 760 mmHg 80%
    07:00 +9°C° 0 mm 7 mps 761 mmHg 76%
    08:00 +10°C° 0 mm 7 mps 761 mmHg 72%
    09:00 +11°C° 0 mm 7 mps 762 mmHg 68%
    10:00 +13°C° 0 mm 6 mps 762 mmHg 66%
    11:00 +14°C° 0 mm 6 mps 762 mmHg 64%
    12:00 +14°C° 0 mm 6 mps 762 mmHg 62%
    13:00 +14°C° 0 mm 6 mps 763 mmHg 62%
    14:00 +14°C° 0 mm 6 mps 763 mmHg 62%
    15:00 +14°C° 0 mm 6 mps 763 mmHg 62%
    16:00 +14°C° 0 mm 6 mps 764 mmHg 65%
    17:00 +13°C° 0 mm 6 mps 764 mmHg 67%
    18:00 +13°C° 0 mm 6 mps 764 mmHg 69%
    19:00 +10°C° 0 mm 5 mps 764 mmHg 74%
    20:00 +9°C° 0 mm 5 mps 765 mmHg 80%
    21:00 +7°C° 0 mm 5 mps 765 mmHg 85%
    22:00 +7°C° 0 mm 5 mps 765 mmHg 88%
    23:00 +6°C° 0 mm 4 mps 765 mmHg 91%

    Day after tomorrow, 22 June, Friday

    Time Temperature Precipitation Wind Pressure Humidity
    00:00 +5°C° 0 mm 4 mps 765 mmHg 94%
    01:00 +5°C° 0 mm 4 mps 765 mmHg 94%
    02:00 +5°C° 0 mm 4 mps 765 mmHg 95%
    03:00 +5°C° 0 mm 4 mps 765 mmHg 95%
    04:00 +5°C° 0 mm 4 mps 765 mmHg 93%
    05:00 +6°C° 0 mm 4 mps 765 mmHg 92%
    06:00 +7°C° 0 mm 4 mps 765 mmHg 90%
    07:00 +8°C° 0 mm 4 mps 765 mmHg 85%
    08:00 +11°C° 0 mm 4 mps 765 mmHg 79%
    09:00 +13°C° 0 mm 4 mps 765 mmHg 73%
    10:00 +13°C° 0 mm 4 mps 765 mmHg 69%
    11:00 +14°C° 0 mm 3 mps 765 mmHg 65%
    12:00 +16°C° 0 mm 3 mps 765 mmHg 61%
    13:00 +17°C° 0 mm 3 mps 765 mmHg 61%
    14:00 +17°C° 0 mm 3 mps 765 mmHg 61%
    15:00 +17°C° 0 mm 3 mps 764 mmHg 60%
    16:00 +17°C° 0 mm 3 mps 764 mmHg 64%
    17:00 +16°C° 0 mm 3 mps 764 mmHg 67%
    18:00 +16°C° 0 mm 3 mps 764 mmHg 70%
    19:00 +13°C° 0 mm 3 mps 764 mmHg 76%
    20:00 +12°C° 0 mm 3 mps 764 mmHg 83%
    21:00 +10°C° 0 mm 3 mps 764 mmHg 89%
    22:00 +9°C° 0 mm 3 mps 764 mmHg 90%
    23:00 +8°C° 0 mm 2 mps 764 mmHg 92%

    23 June, Saturday

    Time Temperature Precipitation Wind Pressure Humidity
    00:00 +7°C° 0 mm 2 mps 764 mmHg 93%
    01:00 +7°C° 0 mm 2 mps 763 mmHg 94%
    02:00 +7°C° 0 mm 2 mps 763 mmHg 94%
    03:00 +6°C° 0 mm 2 mps 763 mmHg 94%
    04:00 +7°C° 0 mm 2 mps 763 mmHg 92%
    05:00 +8°C° 0 mm 2 mps 763 mmHg 90%
    06:00 +9°C° 0 mm 2 mps 763 mmHg 88%
    07:00 +12°C° 0 mm 1 mps 763 mmHg 82%
    08:00 +13°C° 0 mm 1 mps 763 mmHg 76%
    09:00 +15°C° 0 mm 1 mps 763 mmHg 70%
    10:00 +16°C° 0 mm 1 mps 762 mmHg 66%
    11:00 +18°C° 0 mm 1 mps 762 mmHg 62%
    12:00 +19°C° 0 mm 1 mps 762 mmHg 59%
    13:00 +20°C° 0 mm 1 mps 762 mmHg 59%
    14:00 +20°C° 0 mm 1 mps 762 mmHg 59%
    15:00 +20°C° 0 mm 1 mps 761 mmHg 59%
    16:00 +19°C° 0 mm 2 mps 761 mmHg 63%
    17:00 +18°C° 0 mm 2 mps 761 mmHg 68%
    18:00 +18°C° 0 mm 2 mps 761 mmHg 72%
    19:00 +16°C° 0 mm 2 mps 761 mmHg 78%
    20:00 +14°C° 0 mm 2 mps 761 mmHg 85%
    21:00 +12°C° 0 mm 2 mps 761 mmHg 91%
    22:00 +12°C° 0 mm 1 mps 761 mmHg 92%
    23:00 +11°C° 0 mm 1 mps 760 mmHg 92%

    24 June, Sunday

    Time Temperature Precipitation Wind Pressure Humidity
    00:00 +11°C° 0 mm 1 mps 760 mmHg 93%
    01:00 +10°C° 0 mm 1 mps 760 mmHg 93%
    02:00 +10°C° 0 mm 1 mps 760 mmHg 94%
    03:00 +10°C° 0 mm 1 mps 760 mmHg 94%
    04:00 +11°C° 0 mm 1 mps 760 mmHg 93%
    05:00 +12°C° 0 mm 1 mps 760 mmHg 92%
    06:00 +13°C° 0 mm 1 mps 759 mmHg 91%
    07:00 +15°C° 0 mm 1 mps 760 mmHg 85%
    08:00 +17°C° 0 mm 2 mps 760 mmHg 80%
    09:00 +18°C° 0 mm 2 mps 760 mmHg 75%
    10:00 +19°C° 0 mm 2 mps 760 mmHg 72%
    11:00 +20°C° 0 mm 2 mps 760 mmHg 69%
    12:00 +21°C° 0 mm 2 mps 760 mmHg 67%
    13:00 +21°C° 0 mm 2 mps 760 mmHg 68%
    14:00 +21°C° 0 mm 3 mps 760 mmHg 70%
    15:00 +21°C° 0 mm 3 mps 760 mmHg 72%
    16:00 +21°C° 0 mm 3 mps 759 mmHg 74%
    17:00 +21°C° 0 mm 3 mps 759 mmHg 76%
    18:00 +20°C° 0 mm 3 mps 759 mmHg 78%
    19:00 +19°C° 0 mm 3 mps 759 mmHg 82%
    20:00 +17°C° 0 mm 3 mps 759 mmHg 86%
    21:00 +16°C° 0 mm 3 mps 759 mmHg 90%
    22:00 +14°C° 0 mm 3 mps 759 mmHg 90%
    23:00 +14°C° 0 mm 2 mps 759 mmHg 91%

    25 June, Monday

    Time Temperature Precipitation Wind Pressure Humidity
    00:00 +14°C° 0 mm 2 mps 759 mmHg 91%
    01:00 +13°C° 0 mm 2 mps 759 mmHg 92%
    02:00 +13°C° 0 mm 2 mps 759 mmHg 93%
    03:00 +13°C° 0 mm 1 mps 759 mmHg 94%
    04:00 +13°C° 0 mm 1 mps 759 mmHg 93%
    05:00 +14°C° 0 mm 1 mps 759 mmHg 92%
    06:00 +15°C° 0 mm 1 mps 759 mmHg 91%
    07:00 +18°C° 0 mm 1 mps 759 mmHg 86%
    08:00 +19°C° 0 mm 1 mps 759 mmHg 81%
    09:00 +20°C° 0 mm 2 mps 759 mmHg 77%
    10:00 +21°C° 0 mm 2 mps 759 mmHg 74%
    11:00 +21°C° 0 mm 2 mps 759 mmHg 71%
    12:00 +22°C° 0 mm 3 mps 759 mmHg 68%
    13:00 +22°C° 0 mm 3 mps 759 mmHg 68%
    14:00 +24°C° 0 mm 3 mps 759 mmHg 67%
    15:00 +24°C° 0 mm 3 mps 759 mmHg 66%
    16:00 +22°C° 0 mm 3 mps 758 mmHg 68%
    17:00 +22°C° 0 mm 3 mps 758 mmHg 70%
    18:00 +21°C° 0 mm 3 mps 758 mmHg 73%
    19:00 +19°C° 0 mm 3 mps 758 mmHg 76%
    20:00 +18°C° 0 mm 3 mps 758 mmHg 79%
    21:00 +16°C° 0 mm 2 mps 758 mmHg 82%
    22:00 +15°C° 0 mm 2 mps 758 mmHg 83%
    23:00 +15°C° 0 mm 2 mps 758 mmHg 84%
    Show more